2021/10/19 23:18:31+0000,-41.07,-49.13,-32.84,-50.43,-53.66,-55.61
2021/10/19 23:19:23+0000,-41.12,-50.63,-32.85,-50.53,-53.23,-55.71
2021/10/19 23:20:15+0000,-41.28,-49.69,-32.74,-51.20,-53.78,-55.58
2021/10/19 23:21:22+0000,-41.16,-51.12,-33.17,-51.83,-53.85,-55.11
2021/10/19 23:22:15+0000,-39.54,-49.85,-33.76,-11.06,-53.34,-55.43
2021/10/19 23:23:07+0000,-39.40,-51.66,-32.94,-11.44,-53.90,-55.24
2021/10/19 23:23:59+0000,-40.93,-52.23,-33.19,-50.63,-53.44,-55.12
2021/10/19 23:24:51+0000,-40.30,-48.91,-33.12,-52.02,-52.72,-54.77
2021/10/19 23:25:43+0000,-39.92,-46.78,-33.50,-11.98,-52.52,-54.77
2021/10/19 23:26:35+0000,-40.13,-48.32,-32.73,-52.31,-51.82,-54.91
2021/10/19 23:27:27+0000,-40.64,-46.87,-33.48,-50.71,-52.98,-55.17
2021/10/19 23:28:19+0000,-40.39,-47.69,-33.21,-52.44,-53.58,-55.45
2021/10/19 23:29:11+0000,-40.40,-48.17,-33.24,-11.19,-52.99,-54.34
2021/10/19 23:30:03+0000,-41.23,-47.69,-33.27,-51.86,-54.04,-55.53
2021/10/19 23:31:07+0000,-40.58,-49.17,-33.51,-11.18,-53.59,-55.23
2021/10/19 23:31:59+0000,-40.35,-48.47,-32.89,-50.63,-53.46,-55.23
2021/10/19 23:32:51+0000,-40.79,-48.24,-32.92,-51.56,-52.91,-55.08
2021/10/19 23:33:43+0000,-39.94,-47.56,-33.78,-11.09,-53.39,-55.42
2021/10/19 23:34:35+0000,-40.76,-48.72,-33.39,-52.53,-53.14,-55.70
2021/10/19 23:35:27+0000,-40.94,-48.50,-32.76,-50.72,-53.26,-55.45
2021/10/19 23:36:19+0000,-41.01,-47.23,-33.58,-52.79,-53.07,-54.52
2021/10/19 23:37:11+0000,-40.91,-46.96,-32.92,-48.99,-53.12,-55.40
2021/10/19 23:38:03+0000,-40.52,-47.75,-32.89,-52.88,-53.68,-55.08
2021/10/19 23:38:55+0000,-40.10,-47.97,-33.87,-52.06,-53.39,-55.72
2021/10/19 23:39:48+0000,-40.69,-47.65,-33.69,-49.23,-53.37,-54.93
2021/10/19 23:40:40+0000,-40.60,-47.30,-33.29,-11.28,-53.49,-54.93
2021/10/19 23:41:51+0000,-39.90,-48.00,-33.34,-52.00,-53.09,-55.12
2021/10/19 23:42:43+0000,-40.70,-47.63,-33.28,-11.16,-53.56,-54.64
2021/10/19 23:43:35+0000,-40.58,-48.09,-33.18,-52.71,-53.33,-55.74
2021/10/19 23:44:27+0000,-41.25,-47.65,-33.81,-51.57,-53.73,-55.12
2021/10/19 23:45:19+0000,-39.98,-48.44,-33.47,-41.18,-53.48,-55.29
2021/10/19 23:46:11+0000,-40.96,-47.74,-33.44,-11.33,-53.49,-54.33
2021/10/19 23:47:03+0000,-40.48,-49.30,-33.09,-51.34,-53.45,-55.40
2021/10/19 23:47:55+0000,-40.72,-49.55,-32.93,-52.21,-53.19,-55.73
2021/10/19 23:48:47+0000,-41.34,-47.83,-33.86,-11.42,-53.11,-55.57
2021/10/19 23:49:39+0000,-40.80,-48.88,-32.76,-11.36,-53.29,-55.68
2021/10/19 23:50:32+0000,-41.13,-48.11,-33.43,-49.79,-53.66,-54.76
2021/10/19 23:51:30+0000,-41.03,-49.35,-33.74,-51.83,-53.99,-55.56
2021/10/19 23:52:23+0000,-41.02,-49.22,-33.79,-49.36,-52.96,-55.43
2021/10/19 23:53:15+0000,-41.76,-47.92,-33.79,-11.30,-53.01,-55.54
2021/10/19 23:54:07+0000,-41.32,-48.29,-33.41,-11.54,-53.54,-55.59
2021/10/19 23:54:59+0000,-40.97,-49.47,-33.49,-51.93,-53.26,-55.31
2021/10/19 23:55:51+0000,-41.03,-48.33,-33.56,-53.10,-53.77,-56.09
2021/10/19 23:56:43+0000,-40.88,-47.61,-33.38,-51.37,-53.43,-55.46
2021/10/19 23:57:35+0000,-41.50,-47.80,-32.10,-52.77,-53.86,-55.54
2021/10/19 23:58:27+0000,-41.15,-48.64,-33.47,-11.39,-52.95,-55.54
2021/10/19 23:59:19+0000,-41.10,-47.58,-33.48,-51.61,-53.23,-56.07
2021/10/20 00:00:11+0000,-41.17,-47.71,-34.21,-52.13,-53.19,-55.31
2021/10/20 00:01:18+0000,-40.23,-47.97,-33.35,-52.90,-53.22,-55.35
2021/10/20 00:02:10+0000,-40.54,-46.55,-33.00,-49.89,-53.05,-55.89
2021/10/20 00:03:02+0000,-39.65,-47.88,-33.64,-53.25,-53.06,-55.46
2021/10/20 00:03:54+0000,-40.28,-48.38,-33.01,-52.28,-52.76,-55.05
2021/10/20 00:04:46+0000,-39.89,-48.11,-33.24,-52.01,-53.42,-54.88
2021/10/20 00:05:38+0000,-40.52,-48.33,-33.37,-52.35,-53.54,-55.50
2021/10/20 00:06:30+0000,-39.91,-47.93,-34.04,-11.45,-53.03,-55.20
2021/10/20 00:07:22+0000,-40.17,-47.56,-32.49,-10.94,-53.06,-55.83
2021/10/20 00:08:14+0000,-40.60,-47.96,-34.01,-50.47,-53.00,-55.42
2021/10/20 00:09:07+0000,-40.15,-48.58,-32.99,-50.95,-41.98,-55.84
2021/10/20 00:09:59+0000,-39.81,-47.01,-33.02,-11.13,-52.71,-55.74
2021/10/20 00:10:51+0000,-40.24,-48.37,-33.51,-11.55,-52.79,-55.24
2021/10/20 00:11:56+0000,-40.24,-47.80,-33.47,-11.12,-53.17,-55.82
2021/10/20 00:12:48+0000,-37.32,-47.73,-33.67,-53.44,-53.17,-53.77
2021/10/20 00:13:40+0000,-38.11,-47.65,-32.89,-11.22,-53.15,-55.55
2021/10/20 00:14:32+0000,-37.76,-48.00,-33.19,-51.37,-52.91,-54.38
2021/10/20 00:15:24+0000,-40.66,-47.96,-33.23,-52.09,-52.92,-55.54
2021/10/20 00:16:16+0000,-41.17,-45.98,-33.63,-48.94,-53.16,-55.01
2021/10/20 00:17:08+0000,-41.57,-47.49,-32.52,-46.33,-52.63,-53.50
2021/10/20 00:18:00+0000,-41.89,-48.00,-33.41,-11.36,-53.04,-54.78
2021/10/20 00:18:52+0000,-41.43,-47.60,-32.62,-11.55,-53.22,-54.45
2021/10/20 00:19:45+0000,-41.46,-46.82,-33.12,-50.43,-52.71,-54.13
2021/10/20 00:20:37+0000,-41.53,-48.04,-33.16,-50.60,-53.28,-54.37
2021/10/20 00:21:36+0000,-40.81,-48.58,-32.95,-49.29,-52.59,-53.63
2021/10/20 00:22:28+0000,-40.32,-48.02,-33.07,-50.76,-52.91,-53.47
2021/10/20 00:23:20+0000,-40.21,-48.39,-33.64,-52.13,-53.09,-53.99
2021/10/20 00:24:12+0000,-40.22,-47.21,-32.57,-51.09,-53.62,-53.53
2021/10/20 00:25:04+0000,-40.80,-48.19,-33.72,-52.77,-53.45,-54.17
2021/10/20 00:25:56+0000,-41.24,-48.24,-33.62,-12.39,-53.49,-53.14
2021/10/20 00:26:48+0000,-41.31,-48.65,-33.53,-52.84,-53.14,-52.95
2021/10/20 00:27:40+0000,-40.97,-49.41,-33.02,-12.17,-53.60,-53.72
2021/10/20 00:28:32+0000,-41.28,-50.22,-33.18,-50.93,-53.19,-53.85
2021/10/20 00:29:24+0000,-40.95,-49.99,-33.27,-52.01,-52.98,-53.52
2021/10/20 00:30:17+0000,-40.36,-49.39,-33.34,-11.76,-53.11,-53.71
2021/10/20 00:31:17+0000,-40.58,-50.27,-33.62,-11.30,-52.63,-54.02
2021/10/20 00:32:09+0000,-40.81,-50.37,-33.13,-11.22,-52.66,-54.74
2021/10/20 00:33:01+0000,-40.82,-50.31,-32.91,-50.50,-53.24,-53.58
2021/10/20 00:33:53+0000,-41.51,-49.96,-34.12,-52.15,-52.10,-54.16
2021/10/20 00:34:45+0000,-40.62,-50.69,-33.90,-11.31,-51.48,-54.17
2021/10/20 00:35:37+0000,-40.72,-51.87,-33.43,-11.46,-53.34,-53.55
2021/10/20 00:36:29+0000,-41.08,-48.06,-33.06,-49.38,-53.41,-53.74
2021/10/20 00:37:21+0000,-41.47,-51.25,-33.17,-49.97,-52.75,-54.45
2021/10/20 00:38:13+0000,-41.54,-49.05,-33.76,-11.26,-52.23,-52.64
2021/10/20 00:39:05+0000,-40.53,-50.05,-33.48,-50.21,-52.98,-53.53
2021/10/20 00:39:58+0000,-41.10,-50.85,-34.03,-51.07,-52.53,-53.50
2021/10/20 00:40:50+0000,-40.55,-50.08,-33.50,-53.16,-52.55,-53.32
2021/10/20 00:41:59+0000,-40.36,-49.80,-33.86,-49.97,-52.62,-53.73
2021/10/20 00:42:51+0000,-40.41,-51.25,-33.35,-51.20,-51.95,-53.81
2021/10/20 00:43:43+0000,-40.21,-50.17,-33.38,-11.25,-52.95,-53.53
2021/10/20 00:44:36+0000,-40.90,-51.25,-33.35,-12.34,-53.36,-54.41
2021/10/20 00:45:28+0000,-39.47,-50.44,-33.80,-51.44,-53.61,-54.10
2021/10/20 00:46:20+0000,-42.16,-49.57,-33.36,-53.59,-53.21,-53.72
2021/10/20 00:47:12+0000,-41.66,-49.74,-33.57,-11.13,-53.27,-53.25
2021/10/20 00:48:04+0000,-42.07,-50.01,-33.41,-53.58,-53.50,-53.68
2021/10/20 00:48:56+0000,-42.35,-49.90,-33.50,-49.30,-53.08,-53.46
2021/10/20 00:49:48+0000,-42.01,-49.39,-33.17,-20.17,-52.06,-53.68
2021/10/20 00:50:40+0000,-43.05,-50.38,-32.60,-11.35,-52.13,-53.69
2021/10/20 00:51:50+0000,-40.83,-49.36,-33.65,-52.16,-51.47,-52.75
2021/10/20 00:52:42+0000,-40.90,-49.31,-33.80,-11.17,-52.48,-53.31
2021/10/20 00:53:34+0000,-41.06,-50.19,-33.48,-52.19,-51.72,-54.02
2021/10/20 00:54:26+0000,-41.25,-50.64,-33.23,-49.20,-52.02,-53.33
2021/10/20 00:55:18+0000,-40.91,-47.85,-33.93,-11.13,-51.39,-53.07
2021/10/20 00:56:10+0000,-40.48,-48.52,-33.50,-43.45,-52.66,-52.72
2021/10/20 00:57:02+0000,-41.14,-49.84,-33.35,-50.40,-51.95,-53.12
2021/10/20 00:57:54+0000,-41.09,-49.54,-33.59,-51.47,-52.29,-55.20
2021/10/20 00:58:46+0000,-41.70,-47.52,-33.05,-50.79,-52.05,-55.68
2021/10/20 00:59:38+0000,-42.19,-48.54,-33.27,-50.33,-51.75,-55.67
2021/10/20 01:00:30+0000,-42.42,-49.70,-33.22,-49.55,-51.93,-55.86
2021/10/20 01:01:31+0000,-42.29,-48.92,-32.63,-50.09,-52.05,-55.35
2021/10/20 01:02:23+0000,-40.79,-49.86,-32.82,-48.96,-51.93,-55.84
2021/10/20 01:03:15+0000,-42.22,-49.48,-33.24,-51.40,-51.32,-55.17
2021/10/20 01:04:07+0000,-41.64,-49.48,-32.75,-49.27,-52.05,-55.38
2021/10/20 01:04:59+0000,-39.49,-49.07,-32.91,-50.49,-51.86,-55.40
2021/10/20 01:05:51+0000,-40.34,-50.13,-32.92,-49.68,-51.67,-55.48
2021/10/20 01:06:43+0000,-40.90,-48.08,-33.83,-49.91,-52.81,-55.36
2021/10/20 01:07:35+0000,-40.76,-50.71,-33.01,-50.34,-51.33,-55.48
2021/10/20 01:08:27+0000,-39.91,-48.84,-33.54,-51.70,-52.17,-55.24
2021/10/20 01:09:19+0000,-40.29,-47.53,-33.23,-52.03,-52.41,-55.47
2021/10/20 01:10:12+0000,-40.78,-47.83,-33.67,-50.35,-52.27,-55.75
2021/10/20 01:11:17+0000,-40.64,-49.31,-33.29,-50.21,-52.01,-55.69
2021/10/20 01:12:09+0000,-40.83,-49.85,-32.85,-51.00,-52.42,-55.22
2021/10/20 01:13:01+0000,-40.97,-47.97,-33.40,-50.70,-52.59,-55.53
2021/10/20 01:13:53+0000,-38.75,-48.46,-33.88,-50.10,-51.78,-55.23
2021/10/20 01:14:45+0000,-40.82,-49.98,-33.92,-51.10,-52.23,-55.52
2021/10/20 01:15:37+0000,-41.22,-51.43,-33.41,-51.53,-52.58,-55.97
2021/10/20 01:16:29+0000,-41.57,-50.31,-33.96,-51.40,-51.90,-55.68
2021/10/20 01:17:21+0000,-39.81,-50.73,-33.97,-49.83,-52.09,-55.92
2021/10/20 01:18:13+0000,-40.91,-48.47,-33.58,-50.14,-52.26,-55.73
2021/10/20 01:19:05+0000,-40.29,-51.07,-33.01,-49.91,-52.09,-55.71
2021/10/20 01:19:57+0000,-38.94,-50.23,-33.56,-52.12,-51.82,-55.62
2021/10/20 01:20:49+0000,-41.03,-49.51,-33.74,-52.28,-51.84,-55.56
2021/10/20 01:21:54+0000,-41.12,-50.39,-32.57,-49.43,-51.45,-55.23
2021/10/20 01:22:46+0000,-42.71,-49.14,-33.57,-51.27,-51.65,-55.34
2021/10/20 01:23:38+0000,-41.67,-49.98,-33.36,-51.38,-51.47,-55.58
2021/10/20 01:24:30+0000,-43.18,-49.59,-33.24,-49.27,-52.04,-54.86
2021/10/20 01:25:22+0000,-41.57,-50.44,-32.97,-50.19,-51.59,-53.98
2021/10/20 01:26:14+0000,-42.76,-45.97,-33.52,-51.10,-51.39,-54.16
2021/10/20 01:27:06+0000,-40.92,-51.06,-33.42,-51.96,-52.15,-52.96
2021/10/20 01:27:58+0000,-41.51,-49.59,-33.67,-51.39,-50.88,-53.61
2021/10/20 01:28:50+0000,-40.71,-47.95,-32.52,-52.08,-50.96,-53.21
2021/10/20 01:29:42+0000,-40.55,-46.24,-33.39,-49.57,-51.63,-54.31
2021/10/20 01:30:34+0000,-40.35,-49.51,-33.03,-52.23,-51.66,-53.90
2021/10/20 01:31:34+0000,-38.62,-49.87,-33.26,-52.69,-51.54,-53.89
2021/10/20 01:32:26+0000,-41.54,-47.92,-33.05,-50.65,-51.54,-53.62
2021/10/20 01:33:18+0000,-39.79,-47.91,-33.07,-49.75,-50.42,-53.69
2021/10/20 01:34:10+0000,-40.94,-48.70,-33.28,-49.43,-51.28,-53.92
2021/10/20 01:35:02+0000,-40.58,-48.49,-33.27,-51.40,-51.74,-53.48
2021/10/20 01:35:54+0000,-41.06,-50.04,-33.18,-51.54,-49.96,-53.26
2021/10/20 01:36:46+0000,-42.32,-48.26,-32.94,-50.38,-51.59,-53.72
2021/10/20 01:46:25+0000,-41.16,-46.09,-33.64,-51.58,-52.10,-53.17
2021/10/20 01:47:26+0000,-42.06,-47.06,-33.70,-51.47,-51.74,-53.42
2021/10/20 01:48:18+0000,-41.74,-45.86,-33.72,-51.18,-51.62,-53.49
2021/10/20 01:49:10+0000,-42.21,-46.59,-34.12,-51.66,-52.35,-53.80
2021/10/20 01:50:02+0000,-40.30,-45.72,-33.81,-52.36,-51.95,-53.09
2021/10/20 01:51:06+0000,-40.32,-46.96,-33.98,-51.93,-51.63,-53.12
2021/10/20 01:51:58+0000,-41.13,-45.13,-33.78,-51.81,-51.93,-53.56
2021/10/20 01:52:50+0000,-39.33,-47.77,-33.84,-51.95,-51.64,-53.12
2021/10/20 01:53:42+0000,-40.89,-45.66,-33.64,-52.17,-51.89,-53.43
2021/10/20 01:54:34+0000,-41.03,-46.89,-33.67,-50.96,-51.77,-54.43
2021/10/20 01:55:27+0000,-35.80,-46.33,-33.79,-51.67,-52.04,-53.82
2021/10/20 01:56:19+0000,-35.84,-47.09,-33.42,-51.74,-52.73,-52.85
2021/10/20 01:57:11+0000,-39.52,-46.68,-33.04,-51.57,-52.52,-53.60
2021/10/20 01:58:03+0000,-41.14,-45.65,-33.71,-51.43,-52.78,-53.55
2021/10/20 01:58:55+0000,-35.79,-46.32,-33.15,-51.51,-53.01,-53.71
2021/10/20 01:59:47+0000,-39.18,-46.38,-33.68,-51.45,-52.49,-53.45
2021/10/20 02:00:39+0000,-40.83,-44.97,-33.64,-52.15,-52.30,-53.02
2021/10/20 02:01:43+0000,-41.53,-44.52,-33.25,-50.81,-52.63,-54.56
2021/10/20 02:02:35+0000,-40.84,-47.42,-33.49,-51.50,-52.16,-54.73
2021/10/20 02:03:27+0000,-39.09,-46.13,-33.88,-51.85,-52.20,-54.06
2021/10/20 02:04:19+0000,-36.50,-46.80,-33.66,-51.81,-52.31,-54.94
2021/10/20 02:05:12+0000,-39.97,-46.82,-33.54,-50.37,-52.36,-54.57
2021/10/20 02:06:04+0000,-39.94,-45.68,-33.63,-51.63,-52.96,-55.11
2021/10/20 02:06:56+0000,-40.12,-47.17,-33.63,-51.94,-52.77,-54.08
2021/10/20 02:07:48+0000,-38.09,-46.58,-33.57,-51.91,-52.38,-54.28
2021/10/20 02:08:40+0000,-40.10,-45.82,-32.78,-51.20,-52.60,-54.95
2021/10/20 02:09:32+0000,-41.29,-47.83,-33.37,-52.48,-52.47,-54.61
2021/10/20 02:10:24+0000,-38.78,-48.40,-33.34,-51.36,-52.56,-54.93
2021/10/20 02:11:29+0000,-42.26,-50.23,-33.92,-51.29,-52.14,-54.75
2021/10/20 02:12:21+0000,-38.88,-50.90,-33.24,-50.95,-52.83,-54.48
2021/10/20 02:13:13+0000,-40.14,-49.66,-33.50,-51.62,-53.00,-54.32
2021/10/20 02:14:05+0000,-40.61,-50.08,-32.97,-51.48,-52.71,-54.78
2021/10/20 02:14:57+0000,-36.97,-49.33,-33.41,-51.25,-52.17,-53.67
2021/10/20 02:15:49+0000,-39.43,-48.95,-33.37,-52.08,-52.18,-53.18
2021/10/20 02:16:41+0000,-40.46,-48.52,-33.65,-50.28,-52.66,-53.52
2021/10/20 02:17:33+0000,-40.48,-49.93,-34.15,-50.80,-52.73,-53.22
2021/10/20 02:18:25+0000,-36.02,-49.47,-33.85,-50.93,-52.36,-53.55
2021/10/20 02:19:17+0000,-38.12,-47.65,-34.55,-51.85,-52.37,-53.95
2021/10/20 02:20:09+0000,-40.53,-46.63,-33.83,-50.33,-52.29,-52.53
2021/10/20 02:21:08+0000,-41.10,-47.02,-33.70,-50.73,-52.53,-53.08
2021/10/20 02:22:00+0000,-40.79,-47.06,-34.51,-51.63,-52.87,-54.99
2021/10/20 02:22:53+0000,-38.48,-47.49,-34.19,-51.79,-52.19,-53.84
2021/10/20 02:23:45+0000,-40.91,-49.00,-33.70,-50.25,-52.80,-52.99
2021/10/20 02:24:37+0000,-39.90,-49.40,-34.04,-51.46,-52.81,-53.54
2021/10/20 02:25:29+0000,-41.28,-47.03,-34.00,-51.46,-52.24,-54.72
2021/10/20 02:26:21+0000,-36.88,-50.57,-33.89,-52.39,-52.42,-53.63
2021/10/20 02:27:13+0000,-41.05,-47.83,-34.19,-50.85,-52.61,-54.25
2021/10/20 02:28:05+0000,-40.34,-46.35,-34.39,-51.71,-52.12,-53.71
2021/10/20 02:28:57+0000,-35.02,-46.29,-33.57,-51.48,-52.66,-53.81
2021/10/20 02:29:49+0000,-38.29,-47.23,-33.54,-51.72,-52.37,-54.12
2021/10/20 02:30:41+0000,-41.31,-48.43,-33.01,-51.22,-52.65,-54.14
2021/10/20 02:31:50+0000,-34.42,-48.60,-33.86,-51.16,-52.59,-53.10
2021/10/20 02:32:42+0000,-40.96,-48.63,-33.91,-52.15,-52.43,-53.63
2021/10/20 02:33:34+0000,-40.93,-46.15,-33.55,-52.14,-52.20,-53.84
2021/10/20 02:34:26+0000,-33.83,-46.95,-34.05,-51.23,-52.97,-53.78
2021/10/20 02:35:18+0000,-38.41,-47.81,-33.38,-51.27,-51.87,-52.60
2021/10/20 02:36:10+0000,-40.01,-48.23,-33.90,-51.24,-52.60,-53.18
2021/10/20 02:37:02+0000,-39.68,-47.11,-33.29,-51.37,-52.91,-53.10
2021/10/20 02:37:54+0000,-39.19,-46.91,-33.49,-51.10,-53.02,-53.12
2021/10/20 02:38:46+0000,-40.56,-47.81,-33.68,-51.56,-52.36,-53.13
2021/10/20 02:39:39+0000,-40.51,-46.10,-33.24,-50.90,-52.49,-53.67
2021/10/20 02:40:31+0000,-40.80,-49.41,-33.44,-51.23,-52.73,-52.96
2021/10/20 02:41:35+0000,-41.80,-49.67,-33.20,-50.93,-52.69,-53.28
2021/10/20 02:42:27+0000,-39.88,-49.58,-33.86,-51.15,-53.34,-52.88
2021/10/20 02:43:19+0000,-36.39,-47.99,-33.53,-51.81,-52.68,-53.06
2021/10/20 02:44:11+0000,-41.25,-48.53,-33.45,-51.33,-53.05,-53.12
2021/10/20 02:45:03+0000,-38.88,-47.35,-33.11,-51.19,-52.88,-52.94
2021/10/20 02:45:55+0000,-32.64,-46.99,-33.86,-50.88,-53.06,-52.76
2021/10/20 02:46:47+0000,-40.03,-48.82,-33.14,-51.48,-52.12,-53.60
2021/10/20 02:47:39+0000,-39.75,-47.76,-34.04,-51.39,-52.87,-52.91
2021/10/20 02:48:31+0000,-39.62,-44.98,-33.56,-50.92,-52.95,-53.69
2021/10/20 02:49:23+0000,-37.97,-50.41,-33.00,-51.26,-53.23,-52.66
2021/10/20 02:50:16+0000,-40.56,-47.64,-33.47,-51.50,-52.68,-53.32
2021/10/20 02:51:25+0000,-38.38,-46.75,-33.30,-51.37,-52.89,-53.30
2021/10/20 02:52:17+0000,-40.53,-48.18,-34.06,-51.54,-52.65,-53.13
2021/10/20 02:53:09+0000,-41.76,-45.40,-33.13,-51.13,-52.29,-52.73
2021/10/20 02:54:01+0000,-41.37,-49.20,-33.93,-51.17,-52.41,-55.21
2021/10/20 02:54:53+0000,-38.54,-49.55,-33.26,-51.44,-52.57,-54.47
2021/10/20 02:55:45+0000,-41.93,-46.22,-33.37,-51.47,-52.33,-55.17
2021/10/20 02:56:37+0000,-40.42,-50.06,-33.64,-51.94,-52.17,-54.05
2021/10/20 02:57:29+0000,-36.66,-49.12,-33.78,-51.16,-52.77,-53.48
2021/10/20 02:58:21+0000,-37.76,-49.80,-33.56,-50.89,-52.22,-53.73
2021/10/20 02:59:13+0000,-39.70,-45.74,-33.19,-50.79,-53.16,-53.05
2021/10/20 03:00:06+0000,-39.71,-50.39,-33.83,-51.48,-52.91,-53.74
2021/10/20 03:01:05+0000,-39.71,-50.63,-34.06,-51.72,-52.74,-53.40
2021/10/20 03:01:57+0000,-40.24,-50.16,-33.60,-51.64,-52.48,-54.66
2021/10/20 03:02:49+0000,-38.91,-50.71,-34.25,-50.93,-52.99,-54.67
2021/10/20 03:03:41+0000,-40.71,-47.55,-33.39,-51.63,-52.07,-54.18
2021/10/20 03:04:34+0000,-39.82,-46.47,-33.88,-51.06,-52.95,-54.71
2021/10/20 03:05:26+0000,-38.66,-49.69,-33.51,-51.18,-52.63,-55.42
2021/10/20 03:06:18+0000,-39.05,-48.62,-34.09,-51.37,-52.32,-55.01
2021/10/20 03:07:10+0000,-39.20,-47.55,-33.99,-50.76,-52.72,-54.85
2021/10/20 03:08:02+0000,-39.83,-46.31,-33.83,-51.40,-52.76,-55.03
2021/10/20 03:08:54+0000,-37.07,-47.26,-33.09,-51.43,-53.52,-54.62
2021/10/20 03:09:46+0000,-39.28,-48.96,-34.05,-51.78,-52.18,-54.87
2021/10/20 03:10:38+0000,-38.82,-47.60,-33.33,-51.35,-52.27,-53.73
2021/10/20 03:11:42+0000,-39.25,-47.70,-33.87,-51.89,-52.30,-54.78
2021/10/20 03:12:34+0000,-38.82,-49.95,-33.08,-51.43,-52.17,-54.06
2021/10/20 03:13:26+0000,-37.79,-46.84,-33.44,-50.74,-52.57,-54.35
2021/10/20 03:14:18+0000,-36.70,-48.75,-33.27,-51.91,-52.39,-53.95
2021/10/20 03:15:10+0000,-39.67,-49.47,-33.27,-51.66,-52.37,-53.50
2021/10/20 03:16:02+0000,-39.69,-49.05,-33.23,-51.73,-52.35,-53.58
2021/10/20 03:16:55+0000,-39.21,-49.86,-33.48,-51.88,-53.17,-53.78
2021/10/20 03:17:47+0000,-38.55,-49.56,-32.66,-51.14,-52.79,-52.58
2021/10/20 03:18:39+0000,-40.32,-49.97,-33.43,-50.76,-53.06,-53.57
2021/10/20 03:19:31+0000,-39.80,-49.29,-33.29,-51.25,-52.84,-52.70
2021/10/20 03:20:23+0000,-34.33,-49.86,-33.06,-51.46,-53.01,-52.73
2021/10/20 03:21:23+0000,-36.82,-50.12,-32.72,-50.58,-52.49,-53.24
2021/10/20 03:22:15+0000,-40.29,-49.21,-32.92,-51.03,-52.72,-54.13
2021/10/20 03:23:07+0000,-37.83,-50.03,-33.27,-51.10,-52.87,-53.15
2021/10/20 03:23:59+0000,-39.46,-50.23,-32.74,-50.73,-52.41,-52.63
2021/10/20 03:24:51+0000,-36.59,-50.40,-33.34,-51.03,-52.95,-53.27
2021/10/20 03:25:43+0000,-39.60,-49.46,-32.69,-51.40,-53.20,-53.11
2021/10/20 03:26:35+0000,-38.68,-49.34,-32.99,-51.01,-52.66,-53.43
2021/10/20 03:27:27+0000,-36.58,-49.03,-32.72,-51.34,-52.50,-53.14
2021/10/20 03:28:19+0000,-36.68,-50.01,-33.53,-51.09,-52.94,-53.79
2021/10/20 03:29:11+0000,-38.96,-50.29,-32.97,-51.48,-52.67,-53.92
2021/10/20 03:30:03+0000,-38.57,-46.26,-33.64,-50.82,-52.48,-53.07
2021/10/20 03:31:02+0000,-37.99,-49.01,-33.37,-51.61,-52.55,-53.22
2021/10/20 03:31:54+0000,-36.68,-46.27,-32.35,-51.48,-51.81,-53.70
2021/10/20 03:32:46+0000,-39.16,-47.87,-33.32,-50.66,-52.30,-53.79
2021/10/20 03:33:38+0000,-39.24,-46.67,-32.57,-50.66,-51.76,-53.55
2021/10/20 03:34:30+0000,-39.21,-44.71,-33.26,-50.79,-52.06,-53.58
2021/10/20 03:35:22+0000,-37.01,-46.61,-32.81,-51.50,-52.24,-54.35
2021/10/20 03:36:14+0000,-37.26,-47.55,-33.13,-50.88,-52.38,-53.33
2021/10/20 03:37:06+0000,-38.03,-46.17,-33.17,-51.24,-52.47,-55.52
2021/10/20 03:37:58+0000,-37.87,-46.81,-33.45,-51.63,-51.37,-55.17
2021/10/20 03:38:50+0000,-38.35,-46.68,-32.58,-52.04,-52.15,-55.79
2021/10/20 03:39:43+0000,-37.95,-47.31,-32.91,-50.41,-51.99,-55.25
2021/10/20 03:40:35+0000,-37.79,-46.85,-33.08,-50.84,-52.33,-55.24
2021/10/20 03:41:38+0000,-37.96,-48.61,-33.33,-51.20,-52.13,-55.18
2021/10/20 03:42:30+0000,-39.25,-47.73,-33.07,-50.91,-51.16,-55.70
2021/10/20 03:43:23+0000,-38.46,-46.33,-32.93,-50.48,-51.95,-55.35
2021/10/20 03:44:15+0000,-38.63,-46.69,-33.74,-50.99,-52.05,-54.83
2021/10/20 03:45:07+0000,-38.53,-46.59,-33.13,-50.73,-51.11,-55.31
2021/10/20 03:45:59+0000,-37.53,-45.59,-33.35,-50.84,-52.47,-55.33
2021/10/20 03:46:51+0000,-38.11,-45.95,-32.80,-51.30,-51.84,-55.35
2021/10/20 03:47:43+0000,-38.01,-46.40,-32.86,-51.19,-52.00,-55.73
2021/10/20 03:48:35+0000,-38.24,-45.89,-32.26,-50.77,-52.07,-55.35
2021/10/20 03:49:27+0000,-38.29,-45.44,-32.48,-50.80,-52.20,-55.50
2021/10/20 03:50:19+0000,-38.20,-45.81,-33.31,-51.08,-51.84,-55.84
2021/10/20 03:51:29+0000,-38.71,-46.23,-32.87,-51.16,-51.55,-55.16
2021/10/20 03:52:21+0000,-38.27,-47.01,-32.39,-52.06,-51.87,-55.40
2021/10/20 03:53:13+0000,-38.50,-46.78,-32.99,-51.22,-52.69,-55.28
2021/10/20 03:54:05+0000,-38.90,-47.20,-33.36,-51.53,-52.35,-55.88
2021/10/20 03:54:57+0000,-39.21,-46.66,-32.84,-50.99,-51.85,-55.85
2021/10/20 03:55:49+0000,-39.26,-45.67,-32.69,-51.25,-52.04,-55.76
2021/10/20 03:56:41+0000,-38.79,-46.82,-33.20,-51.16,-51.96,-55.38
2021/10/20 03:57:33+0000,-39.26,-48.52,-32.72,-51.68,-51.87,-56.14
2021/10/20 03:58:25+0000,-38.56,-46.56,-32.99,-51.50,-51.97,-55.42
2021/10/20 03:59:17+0000,-38.40,-46.94,-33.30,-51.72,-51.49,-55.62
2021/10/20 04:00:10+0000,-39.33,-46.04,-33.46,-51.43,-51.78,-55.73
2021/10/20 04:01:25+0000,-40.31,-45.07,-32.80,-52.05,-52.32,-55.37
2021/10/20 04:02:17+0000,-39.47,-46.40,-33.48,-51.45,-51.36,-54.88
2021/10/20 04:03:09+0000,-39.01,-46.17,-33.10,-51.72,-51.60,-55.17
2021/10/20 04:04:01+0000,-39.12,-46.26,-32.75,-51.32,-52.01,-55.44
2021/10/20 04:04:53+0000,-38.98,-45.93,-33.33,-51.34,-52.97,-55.15
2021/10/20 04:05:45+0000,-39.26,-46.98,-33.70,-50.53,-52.03,-54.96
2021/10/20 04:06:37+0000,-38.73,-47.72,-33.11,-51.65,-51.77,-55.47
2021/10/20 04:07:29+0000,-39.60,-45.58,-33.21,-51.05,-52.08,-55.39
2021/10/20 04:08:21+0000,-39.01,-46.26,-33.46,-51.71,-52.11,-55.44
2021/10/20 04:09:13+0000,-39.82,-48.33,-33.04,-51.54,-51.77,-54.94
2021/10/20 04:10:06+0000,-38.78,-46.58,-32.86,-51.46,-52.12,-55.47
2021/10/20 04:11:05+0000,-39.15,-46.71,-32.74,-51.89,-52.02,-55.14
2021/10/20 04:11:57+0000,-39.19,-46.09,-32.34,-51.01,-52.18,-54.92
2021/10/20 04:12:49+0000,-38.88,-45.36,-33.31,-52.15,-52.34,-55.01
2021/10/20 04:13:41+0000,-39.87,-47.63,-34.03,-51.11,-52.16,-55.35
2021/10/20 04:14:33+0000,-39.84,-46.76,-33.32,-51.37,-52.53,-55.16
2021/10/20 04:15:25+0000,-40.31,-46.15,-33.78,-51.34,-52.05,-55.03
2021/10/20 04:16:17+0000,-40.11,-46.26,-33.99,-51.14,-52.07,-54.80
2021/10/20 04:17:09+0000,-39.17,-46.07,-33.07,-50.47,-52.18,-55.67
2021/10/20 04:18:01+0000,-40.05,-47.18,-32.98,-50.76,-51.61,-55.43
2021/10/20 04:18:53+0000,-41.31,-46.82,-33.14,-51.61,-52.09,-55.33
2021/10/20 04:19:45+0000,-40.54,-46.19,-33.30,-51.37,-51.69,-55.29
2021/10/20 04:20:37+0000,-40.39,-46.94,-33.58,-51.60,-52.23,-55.20
2021/10/20 04:21:37+0000,-40.71,-47.14,-33.37,-51.10,-51.89,-55.38
2021/10/20 04:22:29+0000,-40.91,-47.33,-33.46,-51.20,-52.36,-55.60
2021/10/20 04:23:21+0000,-40.76,-46.77,-33.53,-49.98,-52.53,-54.79
2021/10/20 04:24:13+0000,-40.65,-46.17,-34.07,-51.04,-52.29,-55.09
2021/10/20 04:25:05+0000,-40.70,-46.01,-33.24,-51.46,-52.11,-54.76
2021/10/20 04:25:57+0000,-40.38,-46.03,-33.38,-51.79,-52.42,-54.59
2021/10/20 04:26:49+0000,-40.03,-46.64,-33.65,-51.24,-51.95,-54.74
2021/10/20 04:27:41+0000,-39.19,-45.60,-33.50,-50.94,-51.70,-55.08
2021/10/20 04:28:33+0000,-39.62,-46.97,-32.85,-52.56,-52.43,-55.40
2021/10/20 04:29:25+0000,-40.26,-45.96,-33.28,-51.53,-52.19,-55.41
2021/10/20 04:30:17+0000,-40.01,-46.57,-33.39,-51.22,-52.13,-55.30
2021/10/20 04:31:16+0000,-39.54,-47.29,-33.27,-51.89,-52.69,-55.80
2021/10/20 04:32:08+0000,-38.91,-46.76,-33.92,-50.88,-51.66,-55.70
2021/10/20 04:33:00+0000,-40.00,-47.06,-33.07,-50.10,-52.23,-55.20
2021/10/20 04:33:52+0000,-40.53,-47.42,-32.91,-51.57,-52.02,-55.02
2021/10/20 04:34:44+0000,-39.56,-46.54,-33.64,-51.20,-52.12,-55.20
2021/10/20 04:35:36+0000,-39.03,-46.09,-33.99,-51.61,-51.47,-55.70
2021/10/20 04:36:28+0000,-37.81,-47.39,-33.49,-51.74,-51.58,-55.26
2021/10/20 04:37:20+0000,-35.95,-47.82,-33.50,-51.45,-52.09,-55.60
2021/10/20 04:38:12+0000,-38.91,-47.25,-33.26,-50.97,-51.70,-55.49
2021/10/20 04:39:04+0000,-38.58,-46.67,-34.02,-51.53,-51.78,-55.60
2021/10/20 04:39:57+0000,-39.08,-46.96,-33.50,-52.54,-51.96,-56.23
2021/10/20 04:40:49+0000,-37.30,-45.85,-33.58,-51.52,-52.38,-55.53
2021/10/20 04:41:52+0000,-39.87,-46.85,-32.65,-51.02,-52.44,-55.28
2021/10/20 04:42:44+0000,-40.33,-47.68,-33.79,-51.82,-52.46,-55.16
2021/10/20 04:43:36+0000,-38.57,-47.82,-33.88,-52.06,-51.89,-54.94